To NAV CANADA Home Page Login to a new session Search on AWWS site Feedback and Comments Disclaimer Vers la page française équivalente Tips FAQ What's new on the site To the Forecasts and Observations / NOTAM section To "File a Flight Plan" website Publications and other links Update of the User's profile FIC Telephone Numbers My Weather Data Folder Route Weather Data Regional Weather Data Local Weather Data To the Forecasts and Observations / NOTAM section
Request Generated 02/23/2017 at 20:46:00 UTC . Weather information available at that time is displayed.

METAR/TAF

WHALE COVE/NU    

METAR CYXN 232000Z 31005KT 15SM SCT220 M21/M25 A3033 RMK CI3 SLP274=
METAR CYXN 231900Z 30005KT 15SM FEW220 M22/M26 A3033 RMK CI2 SLP274=
METAR CYXN 231800Z 32009KT 15SM FEW220 M22/M26 A3033 RMK CI2 SLP275=

CYXN - No TAF is issued for this station

Your time UTC time
Weather data provided by Environment Canada and NAV CANADA